| time (UTC) | temp F | wind direction | speed MPH | gust MPH | rain 1hr in | rain 24hr in | rain mn in | humidity % | barometer mb |
| 20260505000219 | 66 | 90 | 11.0 | 19.0 | 0.00 | 0.00 | 0.00 | 90 | 1014.9 |
| 20260504234718 | 66 | 135 | 12.0 | 19.0 | 0.00 | 0.00 | 0.00 | 91 | 1014.7 |
| 20260504233218 | 66 | 90 | 10.0 | 21.0 | 0.00 | 0.00 | 0.00 | 92 | 1014.5 |
| 20260504231717 | 67 | 90 | 8.0 | 14.0 | 0.00 | 0.00 | 0.00 | 92 | 1014.7 |
| 20260504230218 | 67 | 90 | 9.0 | 18.0 | 0.00 | 0.00 | 0.00 | 92 | 1014.6 |
| 20260504224717 | 0 | 0.0 | 0.0 | 0.00 | 0.00 | 0.00 | |||
| 20260504223218 | 67 | 90 | 10.0 | 16.0 | 0.00 | 0.00 | 0.00 | 93 | 1014.4 |
| 20260504221717 | 67 | 135 | 8.0 | 14.0 | 0.00 | 0.00 | 0.00 | 92 | 1014.3 |
| 20260504220217 | 68 | 135 | 11.0 | 18.0 | 0.00 | 0.00 | 0.00 | 86 | 1014.4 |
| 20260504214718 | 68 | 135 | 11.0 | 16.0 | 0.00 | 0.00 | 0.00 | 83 | 1014.3 |
| 20260504213219 | 68 | 90 | 10.0 | 18.0 | 0.00 | 0.00 | 0.00 | 84 | 1013.9 |
| 20260504211718 | 68 | 90 | 9.0 | 16.0 | 0.00 | 0.00 | 0.00 | 83 | 1014.0 |
| 20260504210218 | 68 | 90 | 8.0 | 16.0 | 0.00 | 0.00 | 0.00 | 83 | 1014.1 |
| 20260504204717 | 68 | 90 | 9.0 | 15.0 | 0.00 | 0.00 | 0.00 | 83 | 1014.1 |
| 20260504203217 | 68 | 90 | 10.0 | 16.0 | 0.00 | 0.00 | 0.00 | 83 | 1013.8 |
| 20260504201717 | 69 | 90 | 9.0 | 18.0 | 0.00 | 0.00 | 0.00 | 84 | 1013.9 |
| 20260504200218 | 69 | 90 | 10.0 | 14.0 | 0.00 | 0.00 | 0.00 | 84 | 1014.0 |
| 20260504194717 | 69 | 90 | 10.0 | 16.0 | 0.00 | 0.00 | 0.00 | 84 | 1013.8 |
| 20260504193218 | 70 | 90 | 8.0 | 16.0 | 0.00 | 0.00 | 0.00 | 85 | 1013.8 |
| 20260504191717 | 0 | 0.0 | 0.0 | 0.00 | 0.00 | 0.00 | |||
| 20260504190217 | 70 | 90 | 9.0 | 15.0 | 0.00 | 0.00 | 0.00 | 84 | 1014.1 |
| 20260504184718 | 70 | 90 | 9.0 | 17.0 | 0.00 | 0.00 | 0.00 | 85 | 1014.2 |
| 20260504183219 | 71 | 90 | 9.0 | 16.0 | 0.00 | 0.00 | 0.00 | 87 | 1014.2 |
| 20260504181717 | 0 | 0.0 | 0.0 | 0.00 | 0.00 | 0.00 | |||
| 20260504180219 | 0 | 0.0 | 0.0 | 0.00 | 0.00 | 0.00 | |||
| 20260504174719 | 72 | 90 | 8.0 | 13.0 | 0.00 | 0.00 | 0.00 | 84 | 1014.8 |
| 20260504173217 | 0 | 0.0 | 0.0 | 0.00 | 0.00 | 0.00 | |||
| 20260504171718 | 72 | 90 | 9.0 | 15.0 | 0.00 | 0.00 | 0.00 | 81 | 1015.1 |
| 20260504170218 | 72 | 90 | 14.0 | 24.0 | 0.00 | 0.00 | 0.00 | 80 | 1015.1 |
| 20260504160217 | 72 | 90 | 13.0 | 24.0 | 0.00 | 0.00 | 0.00 | 82 | 1015.6 |
| 20260504150218 | 71 | 90 | 11.0 | 17.0 | 0.00 | 0.00 | 0.00 | 87 | 1016.1 |
| 20260504140219 | 71 | 90 | 10.0 | 16.0 | 0.00 | 0.00 | 0.00 | 88 | 1015.7 |
| 20260504130217 | 0 | 0.0 | 0.0 | 0.00 | 0.00 | 0.00 | |||
| 20260504120219 | 71 | 90 | 11.0 | 21.0 | 0.00 | 0.00 | 0.00 | 89 | 1014.8 |
| 20260504110218 | 73 | 90 | 8.0 | 20.0 | 0.00 | 0.00 | 0.00 | 87 | 1014.8 |
| 20260504100217 | 73 | 90 | 11.0 | 22.0 | 0.00 | 0.00 | 0.00 | 85 | 1014.0 |
| 20260504081717 | 75 | 45 | 6.0 | 13.0 | 0.00 | 0.00 | 0.00 | 72 | 1014.3 |
| 20260504080218 | 75 | 90 | 7.0 | 13.0 | 0.00 | 0.00 | 0.00 | 72 | 1014.7 |
| 20260504070218 | 75 | 90 | 10.0 | 18.0 | 0.00 | 0.00 | 0.00 | 69 | 1015.3 |
| 20260504060219 | 77 | 90 | 11.0 | 20.0 | 0.00 | 0.00 | 0.00 | 62 | 1015.3 |
| 20260504050218 | 78 | 90 | 6.0 | 17.0 | 0.00 | 0.00 | 0.00 | 64 | 1015.7 |
| 20260504044717 | 79 | 90 | 4.0 | 8.0 | 0.00 | 0.00 | 0.00 | 63 | 1015.7 |
| 20260504043219 | 78 | 135 | 4.0 | 8.0 | 0.00 | 0.00 | 0.00 | 66 | 1015.8 |
| 20260504041718 | 78 | 135 | 4.0 | 8.0 | 0.00 | 0.00 | 0.00 | 66 | 1015.8 |
| 20260504040218 | 76 | 90 | 3.0 | 10.0 | 0.00 | 0.00 | 0.00 | 68 | 1016.1 |
| 20260504034718 | 0 | 0.0 | 0.0 | 0.00 | 0.00 | 0.00 | |||
| 20260504033219 | 0 | 135 | 6.0 | 11.0 | 0.00 | 0.00 | 0.00 | 66 | 1016.0 |
| 20260504031718 | 0 | 0 | 1.0 | 6.0 | 0.00 | 0.00 | 0.00 | 66 | 1016.1 |
| 20260504030218 | 0 | 135 | 11.0 | 18.0 | 0.00 | 0.00 | 0.00 | 66 | 1016.3 |
| 20260504024717 | 0 | 0.0 | 0.0 | 0.00 | 0.00 | 0.00 | |||
| 20260504023217 | 0 | 90 | 11.0 | 16.0 | 0.00 | 0.00 | 0.00 | 69 | 1016.2 |
| 20260504021720 | 0 | 0.0 | 0.0 | 0.00 | 0.00 | 0.00 | |||
| 20260504020230 | 0 | 135 | 3.0 | 9.0 | 0.00 | 0.00 | 0.00 | 67 | 1016.1 |
| 20260504014727 | 0 | 0 | 1.0 | 7.0 | 0.00 | 0.00 | 0.00 | 68 | 1016.2 |
| 20260504013223 | 0 | 0.0 | 0.0 | 0.00 | 0.00 | 0.00 | |||
| 20260504011733 | 0 | 135 | 3.0 | 7.0 | 0.00 | 0.00 | 0.00 | 70 | 1015.7 |
| 20260504010233 | 0 | 135 | 2.0 | 5.0 | 0.00 | 0.00 | 0.00 | 67 | 1015.5 |
| 20260504004737 | 0 | 135 | 0.0 | 2.0 | 0.00 | 0.00 | 0.00 | 69 | 1015.5 |
| 20260504003238 | 0 | 0.0 | 0.0 | 0.00 | 0.00 | 0.00 | |||
| 20260504001735 | 0 | 270 | 3.0 | 5.0 | 0.00 | 0.00 | 0.00 | 78 | 1015.6 |
| 20260504000525 | 0 | 135 | 3.0 | 6.0 | 0.00 | 0.00 | 0.00 | 71 | 1015.2 |